Time,TemperatureF,DewpointF,PressureIn,WindDirection,WindDirectionDegrees,WindSpeedMPH,WindSpeedGustMPH,Humidity,HourlyPrecipIn,Conditions,Clouds,dailyrainin,SoftwareType,DateUTC
2013-03-10 00:02:00,70.0,-99.9,29.96,NW,314,5.0,6.0,-999,-99.99,,,-99.99,,2013-03-10 10:02:00,
2013-03-10 00:11:00,69.0,-99.9,29.95,NNE,25,4.0,6.0,-999,-99.99,,,-99.99,,2013-03-10 10:11:00,
2013-03-10 00:22:00,70.0,-99.9,29.95,North,359,4.0,6.0,-999,-99.99,,,-99.99,,2013-03-10 10:22:00,
2013-03-10 00:32:00,69.0,-99.9,29.96,WNW,289,8.0,9.0,-999,-99.99,,,-99.99,,2013-03-10 10:32:00,
2013-03-10 00:42:00,68.0,-99.9,29.95,North,1,8.0,13.0,-999,-99.99,,,-99.99,,2013-03-10 10:42:00,
2013-03-10 00:52:00,68.0,-99.9,29.96,NNW,338,3.0,7.0,-999,-99.99,,,-99.99,,2013-03-10 10:52:00,
2013-03-10 01:02:00,69.0,-99.9,29.95,NNW,330,9.0,18.0,-999,-99.99,,,-99.99,,2013-03-10 11:02:00,
2013-03-10 01:12:00,68.0,-99.9,29.95,NNW,333,7.0,13.0,-999,-99.99,,,-99.99,,2013-03-10 11:12:00,
2013-03-10 01:22:00,68.0,-99.9,29.95,North,351,6.0,8.0,-999,-99.99,,,-99.99,,2013-03-10 11:22:00,
2013-03-10 01:32:00,67.0,-99.9,29.95,NNW,344,7.0,12.0,-999,-99.99,,,-99.99,,2013-03-10 11:32:00,
2013-03-10 01:42:00,67.0,-99.9,29.94,NE,48,4.0,8.0,-999,-99.99,,,-99.99,,2013-03-10 11:42:00,
2013-03-10 01:52:00,68.0,-99.9,29.95,NNW,335,5.0,7.0,-999,-99.99,,,-99.99,,2013-03-10 11:52:00,
2013-03-10 02:02:00,68.0,-99.9,29.94,NNW,348,5.0,8.0,-999,-99.99,,,-99.99,,2013-03-10 12:02:00,
2013-03-10 02:11:00,68.0,-99.9,29.94,NNW,348,6.0,10.0,-999,-99.99,,,-99.99,,2013-03-10 12:11:00,
2013-03-10 02:21:00,68.0,-99.9,29.94,North,355,6.0,8.0,-999,-99.99,,,-99.99,,2013-03-10 12:21:00,
2013-03-10 02:32:00,68.0,-99.9,29.94,NNW,339,5.0,8.0,-999,-99.99,,,-99.99,,2013-03-10 12:32:00,
2013-03-10 02:42:00,67.0,-99.9,29.94,NNE,14,4.0,7.0,-999,-99.99,,,-99.99,,2013-03-10 12:42:00,
2013-03-10 02:52:00,67.0,-99.9,29.93,North,10,4.0,7.0,-999,-99.99,,,-99.99,,2013-03-10 12:52:00,
2013-03-10 03:01:00,68.0,-99.9,29.92,NE,50,4.0,8.0,-999,-99.99,,,-99.99,,2013-03-10 13:01:00,
2013-03-10 03:11:00,68.0,-99.9,29.92,SE,137,3.0,3.0,-999,-99.99,,,-99.99,,2013-03-10 13:11:00,
2013-03-10 03:21:00,67.0,-99.9,29.91,ENE,61,2.0,4.0,-999,-99.99,,,-99.99,,2013-03-10 13:21:00,
2013-03-10 03:32:00,68.0,-99.9,29.91,NNE,14,2.0,4.0,-999,-99.99,,,-99.99,,2013-03-10 13:32:00,
2013-03-10 03:42:00,68.0,-99.9,29.91,North,359,3.0,4.0,-999,-99.99,,,-99.99,,2013-03-10 13:42:00,
2013-03-10 03:52:00,68.0,-99.9,29.91,NNE,22,4.0,5.0,-999,-99.99,,,-99.99,,2013-03-10 13:52:00,
2013-03-10 04:02:00,68.0,-99.9,29.90,North,356,1.0,3.0,-999,-99.99,,,-99.99,,2013-03-10 14:02:00,
2013-03-10 04:12:00,68.0,-99.9,29.90,WNW,283,3.0,4.0,-999,-99.99,,,-99.99,,2013-03-10 14:12:00,
2013-03-10 04:22:00,68.0,-99.9,29.91,NW,318,1.0,3.0,-999,-99.99,,,-99.99,,2013-03-10 14:22:00,
2013-03-10 04:32:00,68.0,-99.9,29.90,NNE,26,2.0,3.0,-999,-99.99,,,-99.99,,2013-03-10 14:32:00,
2013-03-10 04:42:00,69.0,-99.9,29.90,ENE,64,4.0,4.0,-999,-99.99,,,-99.99,,2013-03-10 14:42:00,
2013-03-10 04:52:00,69.0,-99.9,29.90,ENE,58,4.0,5.0,-999,-99.99,,,-99.99,,2013-03-10 14:52:00,
2013-03-10 05:01:00,69.0,-99.9,29.90,East,82,1.0,3.0,-999,-99.99,,,-99.99,,2013-03-10 15:01:00,
2013-03-10 05:11:00,68.0,-99.9,29.90,ENE,61,2.0,4.0,-999,-99.99,,,-99.99,,2013-03-10 15:11:00,
2013-03-10 05:21:00,69.0,-99.9,29.89,NE,42,2.0,3.0,-999,-99.99,,,-99.99,,2013-03-10 15:21:00,
2013-03-10 05:32:00,69.0,-99.9,29.89,NNE,27,2.0,4.0,-999,-99.99,,,-99.99,,2013-03-10 15:32:00,
2013-03-10 05:42:00,69.0,-99.9,29.90,NNE,18,2.0,4.0,-999,-99.99,,,-99.99,,2013-03-10 15:42:00,
2013-03-10 05:52:00,69.0,-99.9,29.90,NNE,21,2.0,4.0,-999,-99.99,,,-99.99,,2013-03-10 15:52:00,
2013-03-10 06:02:00,69.0,-99.9,29.91,ESE,116,0.0,2.0,-999,-99.99,,,-99.99,,2013-03-10 16:02:00,
2013-03-10 06:12:00,69.0,-99.9,29.91,NE,38,2.0,3.0,-999,-99.99,,,-99.99,,2013-03-10 16:12:00,
2013-03-10 06:22:00,69.0,-99.9,29.91,North,9,4.0,6.0,-999,-99.99,,,-99.99,,2013-03-10 16:22:00,
2013-03-10 06:32:00,70.0,-99.9,29.92,South,187,6.0,7.0,-999,-99.99,,,-99.99,,2013-03-10 16:32:00,
2013-03-10 06:42:00,68.0,-99.9,29.93,SSW,213,1.0,3.0,-999,-99.99,,,-99.99,,2013-03-10 16:42:00,
2013-03-10 06:52:00,68.0,-99.9,29.93,SE,135,4.0,7.0,-999,-99.99,,,-99.99,,2013-03-10 16:52:00,
2013-03-10 07:01:00,68.0,-99.9,29.93,ENE,58,6.0,7.0,-999,-99.99,,,-99.99,,2013-03-10 17:01:00,
2013-03-10 07:11:00,68.0,-99.9,29.93,South,191,4.0,6.0,-999,-99.99,,,-99.99,,2013-03-10 17:11:00,
2013-03-10 07:21:00,68.0,-99.9,29.93,ENE,66,4.0,6.0,-999,-99.99,,,-99.99,,2013-03-10 17:21:00,
2013-03-10 07:32:00,68.0,-99.9,29.93,East,95,3.0,6.0,-999,-99.99,,,-99.99,,2013-03-10 17:32:00,
2013-03-10 07:41:00,68.0,-99.9,29.94,East,82,3.0,4.0,-999,-99.99,,,-99.99,,2013-03-10 17:41:00,
2013-03-10 07:52:00,69.0,-99.9,29.95,West,267,0.0,3.0,-999,-99.99,,,-99.99,,2013-03-10 17:52:00,
2013-03-10 08:01:00,69.0,-99.9,29.94,NE,47,1.0,3.0,-999,-99.99,,,-99.99,,2013-03-10 18:01:00,
2013-03-10 08:12:00,69.0,-99.9,29.95,ENE,58,2.0,3.0,-999,-99.99,,,-99.99,,2013-03-10 18:12:00,
2013-03-10 08:22:00,69.0,-99.9,29.95,ENE,70,2.0,3.0,-999,-99.99,,,-99.99,,2013-03-10 18:22:00,
2013-03-10 08:32:00,69.0,-99.9,29.96,SSW,205,1.0,2.0,-999,-99.99,,,-99.99,,2013-03-10 18:32:00,
2013-03-10 08:42:00,69.0,-99.9,29.96,North,358,-999.0,2.0,-999,-99.99,,,-99.99,,2013-03-10 18:42:00,
2013-03-10 08:52:00,69.0,-99.9,29.96,North,9,1.0,4.0,-999,-99.99,,,-99.99,,2013-03-10 18:52:00,
2013-03-10 09:02:00,69.0,-99.9,29.97,NW,306,2.0,3.0,-999,-99.99,,,-99.99,,2013-03-10 19:02:00,
2013-03-10 09:11:00,69.0,-99.9,29.97,NNW,335,4.0,5.0,-999,-99.99,,,-99.99,,2013-03-10 19:11:00,
2013-03-10 09:22:00,69.0,-99.9,29.97,North,-999,4.0,5.0,-999,-99.99,,,-99.99,,2013-03-10 19:22:00,
2013-03-10 09:32:00,69.0,-99.9,29.98,NW,311,2.0,7.0,-999,-99.99,,,-99.99,,2013-03-10 19:32:00,
2013-03-10 09:42:00,69.0,-99.9,29.97,NNW,333,4.0,5.0,-999,-99.99,,,-99.99,,2013-03-10 19:42:00,
2013-03-10 09:53:00,70.0,-99.9,29.98,West,263,8.0,12.0,-999,-99.99,,,-99.99,,2013-03-10 19:53:00,
2013-03-10 10:02:00,70.0,-99.9,29.98,SW,236,14.0,19.0,-999,-99.99,,,-99.99,,2013-03-10 20:02:00,
2013-03-10 10:13:00,70.0,-99.9,29.98,WSW,243,14.0,19.0,-999,-99.99,,,-99.99,,2013-03-10 20:13:00,
2013-03-10 10:22:00,70.0,-99.9,29.98,WSW,252,10.0,14.0,-999,-99.99,,,-99.99,,2013-03-10 20:22:00,
2013-03-10 10:33:00,70.0,-99.9,29.99,WSW,243,13.0,17.0,-999,-99.99,,,-99.99,,2013-03-10 20:33:00,
2013-03-10 10:43:00,70.0,-99.9,29.99,WSW,245,11.0,14.0,-999,-99.99,,,-99.99,,2013-03-10 20:43:00,
2013-03-10 10:53:00,70.0,-99.9,29.99,WSW,250,14.0,16.0,-999,-99.99,,,-99.99,,2013-03-10 20:53:00,
2013-03-10 11:02:00,70.0,-99.9,29.99,WSW,248,9.0,15.0,-999,-99.99,,,-99.99,,2013-03-10 21:02:00,
2013-03-10 11:12:00,70.0,-99.9,29.99,West,276,9.0,10.0,-999,-99.99,,,-99.99,,2013-03-10 21:12:00,
2013-03-10 11:23:00,70.0,-99.9,29.98,WNW,302,9.0,11.0,-999,-99.99,,,-99.99,,2013-03-10 21:23:00,
2013-03-10 11:33:00,70.0,-99.9,29.98,NW,318,6.0,11.0,-999,-99.99,,,-99.99,,2013-03-10 21:33:00,
2013-03-10 11:43:00,70.0,-99.9,29.98,NW,310,8.0,11.0,-999,-99.99,,,-99.99,,2013-03-10 21:43:00,
2013-03-10 11:53:00,70.0,-99.9,29.97,NW,314,9.0,12.0,-999,-99.99,,,-99.99,,2013-03-10 21:53:00,
2013-03-10 12:03:00,70.0,-99.9,29.97,North,351,5.0,9.0,-999,-99.99,,,-99.99,,2013-03-10 22:03:00,
2013-03-10 12:12:00,70.0,-99.9,29.97,NW,320,8.0,10.0,-999,-99.99,,,-99.99,,2013-03-10 22:12:00,
2013-03-10 12:22:00,70.0,-99.9,29.97,WNW,296,9.0,10.0,-999,-99.99,,,-99.99,,2013-03-10 22:22:00,
2013-03-10 12:33:00,69.0,-99.9,29.96,NW,308,9.0,12.0,-999,-99.99,,,-99.99,,2013-03-10 22:33:00,
2013-03-10 12:43:00,69.0,-99.9,29.96,NW,305,8.0,10.0,-999,-99.99,,,-99.99,,2013-03-10 22:43:00,
2013-03-10 12:53:00,69.0,-99.9,29.96,NW,322,8.0,11.0,-999,-99.99,,,-99.99,,2013-03-10 22:53:00,
2013-03-10 13:03:00,70.0,-99.9,29.96,NNW,329,5.0,8.0,-999,-99.99,,,-99.99,,2013-03-10 23:03:00,
2013-03-10 13:12:00,70.0,-99.9,29.96,WNW,287,6.0,7.0,-999,-99.99,,,-99.99,,2013-03-10 23:12:00,
2013-03-10 13:23:00,70.0,-99.9,29.95,West,270,5.0,8.0,-999,-99.99,,,-99.99,,2013-03-10 23:23:00,
2013-03-10 13:33:00,69.0,-99.9,29.95,WSW,238,4.0,8.0,-999,-99.99,,,-99.99,,2013-03-10 23:33:00,
2013-03-10 13:43:00,70.0,-99.9,29.95,SW,230,8.0,12.0,-999,-99.99,,,-99.99,,2013-03-10 23:43:00,
2013-03-10 13:53:00,69.0,-99.9,29.94,SW,219,7.0,14.0,-999,-99.99,,,-99.99,,2013-03-10 23:53:00,
2013-03-10 14:03:00,69.0,-99.9,29.94,SSW,204,9.0,12.0,-999,-99.99,,,-99.99,,2013-03-11 00:03:00,
2013-03-10 14:13:00,69.0,-99.9,29.94,SW,215,6.0,10.0,-999,-99.99,,,-99.99,,2013-03-11 00:13:00,
2013-03-10 14:23:00,69.0,-99.9,29.93,South,174,4.0,7.0,-999,-99.99,,,-99.99,,2013-03-11 00:23:00,
2013-03-10 14:33:00,69.0,-99.9,29.93,SSW,209,5.0,7.0,-999,-99.99,,,-99.99,,2013-03-11 00:33:00,
2013-03-10 14:43:00,70.0,-99.9,29.93,SSW,210,5.0,9.0,-999,-99.99,,,-99.99,,2013-03-11 00:43:00,
2013-03-10 14:53:00,70.0,-99.9,29.93,SW,232,8.0,10.0,-999,-99.99,,,-99.99,,2013-03-11 00:53:00,
2013-03-10 15:03:00,70.0,-99.9,29.93,SW,222,9.0,16.0,-999,-99.99,,,-99.99,,2013-03-11 01:03:00,
2013-03-10 15:13:00,70.0,-99.9,29.93,SW,225,10.0,16.0,-999,-99.99,,,-99.99,,2013-03-11 01:13:00,
2013-03-10 15:23:00,69.0,-99.9,29.93,SSW,213,9.0,15.0,-999,-99.99,,,-99.99,,2013-03-11 01:23:00,
2013-03-10 15:33:00,69.0,-99.9,29.93,SW,227,12.0,16.0,-999,-99.99,,,-99.99,,2013-03-11 01:33:00,
2013-03-10 15:43:00,68.0,-99.9,29.93,SW,231,11.0,15.0,-999,-99.99,,,-99.99,,2013-03-11 01:43:00,
2013-03-10 15:53:00,69.0,-99.9,29.93,SW,226,6.0,11.0,-999,-99.99,,,-99.99,,2013-03-11 01:53:00,
2013-03-10 16:03:00,68.0,-99.9,29.93,WSW,237,10.0,12.0,-999,-99.99,,,-99.99,,2013-03-11 02:03:00,
2013-03-10 16:13:00,69.0,-99.9,29.93,WSW,242,8.0,11.0,-999,-99.99,,,-99.99,,2013-03-11 02:13:00,
2013-03-10 16:23:00,69.0,-99.9,29.93,WSW,246,9.0,10.0,-999,-99.99,,,-99.99,,2013-03-11 02:23:00,
2013-03-10 16:32:00,69.0,-99.9,29.93,SW,229,12.0,15.0,-999,-99.99,,,-99.99,,2013-03-11 02:32:00,
2013-03-10 16:42:00,69.0,-99.9,29.93,SW,229,11.0,14.0,-999,-99.99,,,-99.99,,2013-03-11 02:42:00,
2013-03-10 16:53:00,70.0,-99.9,29.93,SW,230,11.0,14.0,-999,-99.99,,,-99.99,,2013-03-11 02:53:00,
2013-03-10 17:02:00,70.0,-99.9,29.93,SW,235,10.0,13.0,-999,-99.99,,,-99.99,,2013-03-11 03:02:00,
2013-03-10 17:12:00,70.0,-99.9,29.93,SW,231,10.0,14.0,-999,-99.99,,,-99.99,,2013-03-11 03:12:00,
2013-03-10 17:22:00,71.0,-99.9,29.93,SW,232,11.0,14.0,-999,-99.99,,,-99.99,,2013-03-11 03:22:00,
2013-03-10 17:32:00,71.0,-99.9,29.93,SW,230,10.0,13.0,-999,-99.99,,,-99.99,,2013-03-11 03:32:00,
2013-03-10 17:43:00,71.0,-99.9,29.94,WSW,244,9.0,11.0,-999,-99.99,,,-99.99,,2013-03-11 03:43:00,
2013-03-10 17:53:00,69.0,-99.9,29.94,WSW,258,6.0,7.0,-999,-99.99,,,-99.99,,2013-03-11 03:53:00,
2013-03-10 18:03:00,68.0,-99.9,29.94,West,267,6.0,7.0,-999,-99.99,,,-99.99,,2013-03-11 04:03:00,
2013-03-10 18:12:00,68.0,-99.9,29.95,West,276,6.0,8.0,-999,-99.99,,,-99.99,,2013-03-11 04:12:00,
2013-03-10 18:22:00,68.0,-99.9,29.95,WNW,290,6.0,8.0,-999,-99.99,,,-99.99,,2013-03-11 04:22:00,
2013-03-10 18:33:00,67.0,-99.9,29.96,WNW,302,5.0,9.0,-999,-99.99,,,-99.99,,2013-03-11 04:33:00,
2013-03-10 18:43:00,67.0,-99.9,29.96,WNW,294,8.0,12.0,-999,-99.99,,,-99.99,,2013-03-11 04:43:00,
2013-03-10 18:53:00,67.0,-99.9,29.96,WNW,286,5.0,9.0,-999,-99.99,,,-99.99,,2013-03-11 04:53:00,
2013-03-10 19:04:00,66.0,-99.9,29.96,West,277,4.0,6.0,-999,-99.99,,,-99.99,,2013-03-11 05:04:00,
2013-03-10 19:12:00,67.0,-99.9,29.97,ESE,116,2.0,2.0,-999,-99.99,,,-99.99,,2013-03-11 05:12:00,
2013-03-10 19:22:00,67.0,-99.9,29.97,SW,215,3.0,4.0,-999,-99.99,,,-99.99,,2013-03-11 05:22:00,
2013-03-10 19:32:00,66.0,-99.9,29.98,SSW,195,1.0,3.0,-999,-99.99,,,-99.99,,2013-03-11 05:32:00,
2013-03-10 19:43:00,67.0,-99.9,29.98,SE,146,3.0,4.0,-999,-99.99,,,-99.99,,2013-03-11 05:43:00,
2013-03-10 19:52:00,67.0,-99.9,29.98,SE,137,3.0,6.0,-999,-99.99,,,-99.99,,2013-03-11 05:52:00,
2013-03-10 20:02:00,67.0,-99.9,29.98,NNE,31,3.0,4.0,-999,-99.99,,,-99.99,,2013-03-11 06:02:00,
2013-03-10 20:12:00,67.0,-99.9,29.99,NNE,29,2.0,5.0,-999,-99.99,,,-99.99,,2013-03-11 06:12:00,
2013-03-10 20:22:00,67.0,-99.9,30.00,ESE,110,2.0,3.0,-999,-99.99,,,-99.99,,2013-03-11 06:22:00,
2013-03-10 20:33:00,67.0,-99.9,30.00,SE,140,3.0,5.0,-999,-99.99,,,-99.99,,2013-03-11 06:33:00,
2013-03-10 20:42:00,67.0,-99.9,30.01,NE,36,2.0,3.0,-999,-99.99,,,-99.99,,2013-03-11 06:42:00,
2013-03-10 20:53:00,67.0,-99.9,30.01,ESE,114,1.0,2.0,-999,-99.99,,,-99.99,,2013-03-11 06:53:00,
2013-03-10 21:03:00,67.0,-99.9,30.01,SE,124,1.0,2.0,-999,-99.99,,,-99.99,,2013-03-11 07:03:00,
2013-03-10 21:12:00,67.0,-99.9,30.01,North,9,1.0,2.0,-999,-99.99,,,-99.99,,2013-03-11 07:12:00,
2013-03-10 21:22:00,67.0,-99.9,30.02,NNE,33,1.0,1.0,-999,-99.99,,,-99.99,,2013-03-11 07:22:00,
2013-03-10 21:33:00,68.0,-99.9,30.02,North,349,2.0,3.0,-999,-99.99,,,-99.99,,2013-03-11 07:33:00,
2013-03-10 21:42:00,68.0,-99.9,30.02,North,354,1.0,3.0,-999,-99.99,,,-99.99,,2013-03-11 07:42:00,
2013-03-10 21:52:00,68.0,-99.9,30.03,NW,309,1.0,2.0,-999,-99.99,,,-99.99,,2013-03-11 07:52:00,
2013-03-10 22:02:00,68.0,-99.9,30.03,NW,318,-999.0,2.0,-999,-99.99,,,-99.99,,2013-03-11 08:02:00,
2013-03-10 22:12:00,68.0,-99.9,30.03,NW,318,-999.0,2.0,-999,-99.99,,,-99.99,,2013-03-11 08:12:00,
2013-03-10 22:22:00,67.0,-99.9,30.04,North,-999,-999.0,-999.0,-999,-99.99,,,-99.99,,2013-03-11 08:22:00,
2013-03-10 22:33:00,68.0,-99.9,30.04,ESE,107,-999.0,0.0,-999,-99.99,,,-99.99,,2013-03-11 08:33:00,
2013-03-10 22:42:00,67.0,-99.9,30.04,East,93,1.0,2.0,-999,-99.99,,,-99.99,,2013-03-11 08:42:00,
2013-03-10 22:52:00,67.0,-99.9,30.04,East,80,1.0,3.0,-999,-99.99,,,-99.99,,2013-03-11 08:52:00,
2013-03-10 23:02:00,67.0,-99.9,30.04,East,100,1.0,2.0,-999,-99.99,,,-99.99,,2013-03-11 09:02:00,
2013-03-10 23:12:00,67.0,-99.9,30.04,ESE,116,2.0,2.0,-999,-99.99,,,-99.99,,2013-03-11 09:12:00,
2013-03-10 23:23:00,67.0,-99.9,30.04,ENE,78,1.0,3.0,-999,-99.99,,,-99.99,,2013-03-11 09:23:00,
2013-03-10 23:32:00,66.0,-99.9,30.04,ENE,60,3.0,3.0,-999,-99.99,,,-99.99,,2013-03-11 09:32:00,
2013-03-10 23:42:00,66.0,-99.9,30.04,ENE,62,2.0,3.0,-999,-99.99,,,-99.99,,2013-03-11 09:42:00,
2013-03-10 23:53:00,66.0,-99.9,30.04,NE,56,2.0,3.0,-999,-99.99,,,-99.99,,2013-03-11 09:53:00,